Regional Weather Roundup
Issued by NWS Sterling, VA

Home | Current Version | Previous Version | Text Only | Print | Product List | Glossary Off
Versions: 1 2 3 4 5 6 7 8 9 10 11 12 13 14 15 16 17 18 19 20 21 22 23 24 25 26 27 28 29 30 31 32 33 34 35 36 37 38 39 40 41 42 43 44 45 46 47 48 49 50

000
ASUS41 KLWX 251810
RWRLWX

REGIONAL WEATHER ROUNDUP
NATIONAL WEATHER SERVICE BALTIMORE MD/WASHINGTON DC
100 PM EST SAT FEB 25 2017

Note: "FAIR" indicates few or no clouds below 12,000 feet
with no significant weather and/or obstructions to visibility.
 TC=TEMPERATURE CELSIUS

 * =Non NWS site. Station does not report precipitation (e.g. rain,
    snow, etc.), thunder, or fog.

DCZ001-MDZ009-015-VAZ040>042-051-053>054-251900-
WASHINGTON METRO

CITY           SKY/WX    TMP DP  RH WIND       PRES   REMARKS
WASHINGTON NAT PTSUNNY   70  57  63 S17       29.51F
DULLES         PTSUNNY   75  55  49 S22G35    29.48F
ANDREWS AFB    PTSUNNY   74  57  56 S18G25    29.51F
FT BELVOIR     MOSUNNY   74  57  54 S10G17    29.50F
QUANTICO       CLOUDY    68  56  65 SW13G25   29.52F
COLLEGE PARK*  PTSUNNY   73  55  53 S13G23    29.50F
LEESBURG*      CLOUDY    73  61  64 MISG      29.50F
MANASSAS*        N/A     75  57  53 SW14G21   29.50F
GAITHERSBURG*  CLOUDY    73  55  53 S16G25    29.54F

$$

MDZ006>007-011-014-251900-
BALTIMORE METRO

CITY           SKY/WX    TMP DP  RH WIND       PRES   REMARKS
BWI AIRPORT    PTSUNNY   74  57  55 SE10G24   29.51F
MD SCIENCE CTR   N/A     70  56  61 MISG      29.52F
MARTIN STATE   PTSUNNY   64  59  82 SE14      29.56F
ANNAPOLIS      MOSUNNY   68  58  70 SE14      29.55F
FORT MEADE*    CLOUDY    73  55  53 S12G23    29.53F

$$

MDZ012-015-019>023-251900-
MARYLAND EASTERN SHORE

CITY           SKY/WX    TMP DP  RH WIND       PRES   REMARKS
OCEAN CITY     CLOUDY    56  52  86 S8        29.64F
SALISBURY      MOSUNNY   75  59  57 S13       29.59F
BAY BRIDGE AP* MOSUNNY   70  57  64 S16       29.54F
CAMBRIDGE*     SUNNY     68  59  73 S18G25    29.58F
EASTON*        SUNNY     73  57  56 S14G23    29.61F

$$

MDZ017>025-251900-
SOUTHERN MARYLAND

CITY           SKY/WX    TMP DP  RH WIND       PRES   REMARKS
PATUXENT RIVER PTSUNNY   67  57  70 SE12      29.56F
ST INIGOES     MOSUNNY   70  58  65 S9        29.56F
LEONARDTOWN*   CLOUDY    73  55  53 SW14G20   29.57F

$$

MDZ003>005-251900-
NORTH CENTRAL MARYLAND

CITY           SKY/WX    TMP DP  RH WIND       PRES   REMARKS
FREDERICK*     CLOUDY    70  59  68 SW14      29.53F
HAGERSTOWN APT CLOUDY    69  57  65 S13       29.48F
WESTMINSTER*   NOT AVBL

$$

MDZ501>502-251900-
WESTERN MARYLAND

CITY           SKY/WX    TMP DP  RH WIND       PRES   REMARKS
OAKLAND*       CLOUDY    39  37  93 SW9G24    29.60F
CUMBERLAND*    CLOUDY    52  43  71 W14G25    29.64R

$$

VAZ025>031-251900-
SHENANDOAH VALLEY

CITY           SKY/WX    TMP DP  RH WIND       PRES   REMARKS
WINCHESTER*    CLOUDY    64  54  68 S3        29.50F
FRONT ROYAL*   CLOUDY    70  55  60 SE5       29.48F
LURAY*         CLOUDY    70  54  56 SW16G28   29.49F
NEW MARKET*    CLOUDY    67  51  57 SW15G23   29.51F
STAUNTON*      CLOUDY    64  50  58 W22G29    29.56F
WAYNESBORO*    CLOUDY    64  50  60 SW13G24   29.54F

$$

WVZ021-048>050-054>055-251900-
EASTERN WEST VIRGINIA PANHANDLE

CITY           SKY/WX    TMP DP  RH WIND       PRES   REMARKS
MARTINSBURG    CLOUDY    68  53  58 S7        29.48F
PETERSBURG*    LGT RAIN  55  42  62 W5G24     29.61R

$$

VAZ036>039-050-251900-
CENTRAL FOOTHILLS

CITY           SKY/WX    TMP DP  RH WIND       PRES   REMARKS
CHARLOTTESVILL PTSUNNY   71  55  56 S14       29.48F
CULPEPER*      PTSUNNY   75  57  52 SW13G24   29.50F
ORANGE*        PTSUNNY   73  55  53 S12G26    29.52F
GORDONSVILLE*  PTSUNNY   74  57  56 S13G24    29.50F
WARRENTON*     PTSUNNY   78  53  41 S14G22    29.49F

$$

VAZ055>057-251900-
NORTH AND CENTRAL PIEDMONT

CITY           SKY/WX    TMP DP  RH WIND       PRES   REMARKS
FREDERICKSBRG* MOSUNNY   75  59  57 S13       29.52F
STAFFORD*      PTSUNNY   75  58  54 S9G24     29.56F

$$

NCZ024-NYZ072-PAZ021-071-VAZ022-071-251900-
OTHER REGIONAL OBSERVATIONS

CITY           SKY/WX    TMP DP  RH WIND       PRES   REMARKS
NEW YORK CITY  MOSUNNY   59  53  80 S13G18    29.66F
PHILADELPHIA   PTSUNNY   71  56  58 S10G20    29.58F
PITTSBURGH     CLOUDY    50  32  50 SW18G31   29.62R
ROANOKE        CLOUDY    58  35  42 W21G30    29.65F
RICHMOND       PTSUNNY   75  57  53 S18G29    29.56F
RALEIGH        PTSUNNY   79  56  45 SW23G37   29.62F

$$

ANZ530>537-251900-
MARINE OBSERVATIONS

STATION/POSITION TIME  TEMP    WIND        PRES
                       AIR SEA DIR/SP/G
                 (UTC) (F)     (DEG/KT/KT) (MB)
THOMAS PT LIGHT  1800   59 44  150/ 18/ 19   N/A
BALT KEY BRIDGE  1748   63     140/ 17/ 18  999.8F
COVE POINT       1748   51     190/ 17/ 19 1002.1F
LEWISETTA        1748   71 52  210/ 12/ 15 1001.0F
SOLOMONS ISLAND  1748      46  110/ 10/ 17   N/A
PINEY POINT      1748          200/ 13/ 16   N/A

$$




USA.gov is the U.S. government's official web portal to all federal, state and local government web resources and services.